NOAA 16 DEB

Satellite information

Favourite Embed

Satellite Type and Status

DEBRISIN ORBIT

Key statistics

Satellite NOAA 16 DEB at a glance.

Uptime

9053

Days in orbit

Revolutions

≈ 14.2

Per day

Orbit

SSO

Sun Synchronous Orbit

Inclination

98.8

Latest

Satellite identification and parameters

Extended collection of information and parameters for NOAA 16 DEB.

Object identification

Identified? True

Debris? True

Object name: NOAA 16 DEB

International designator: 2000-055FN

Object number (NORAD): 41262

Object ID (CCSDS): 41262

Country: UNITED STATES OF AMERICA (US)

Current information (Y/N): Y

RCS size: SMALL

Orbital parameters

Period: 101.413 minutes

Inclination: 98.7993 deg

SMA: 7203.717 km

Apoapsis: 858.24 km

Periapsis: 792.924 km

RAAN: 209.4794 deg

Eccentricy: 0.0045335

Argument of periapsis: 237.483 deg

Mean anomaly: 122.1961 deg

Mean motion: 14.19932893 rev/day

Mean motion (dot): 0.00003927 rev/day2

B* drag term: 0.0018497 1/REarth

Two-line elements (TLE)

Creation date: July 2, 2025, 5:47 p.m.

Reference frame: TEME

Reference center: EARTH

Epoch: July 2, 2025, 7:55 a.m. UTC

TLE line 0: 0 NOAA 16 DEB

TLE line 1: 1 41262U 00055FN 25183.33001686 .00003927 00000-0 18497-2 0 9993

TLE line 2: 2 41262 98.7993 209.4794 0045335 237.4830 122.1961 14.19932893489871

Live tracking on map

Real-time ground track for satellite NOAA 16 DEB.

In-orbit conjunctions

A list of the most updated potential collisions computed for object NOAA 16 DEB.

Target Orbit TCA Probability of collision Miss distance Type
METEOR 1-26 LEO 2025-01-09 22:26:58 0.0003249808 73.0 (m) PAYLOAD
METEOR 1-27 LEO 2024-08-15 05:45:14 0.001116888 259.0 (m) PAYLOAD
FENGYUN 1C DEB SSO 2024-07-12 06:08:45 0.0001577646 283.0 (m) DEBRIS

Associated space launch

The NOAA K, L and M POES satellites begin the fifth generation of improved environmental monitoring in support of NOAA missions. The instrument payload has significant improvements and additions/deletions. The instrument changes have effected the spacecraft subsystems and data formats.

NOAA 16 DEB was lifted into orbit during the mission ‘Titan II SLV | NOAA 16’, on board a Titan II SLV space rocket.

The launch took place on Sept. 21, 2000, 10:22 a.m. from Space Launch Complex 4W.

For more information about the launch, click the button.

Launch to space Titan II SLV | NOAA 16
Titan II SLV | NOAA 16

Agency: N/A

Status: Launch Successful

Launch date: Sept. 21, 2000, 10:22 a.m. UTC

Rocket: Titan II SLV

Launch pad: Space Launch Complex 4W

Location: Vandenberg SFB, CA, USA

...

Latest news about this satellite

There are no fresh news available about this satellite. Check back as we update our databases every day.


Newsletter sign-up

Weekly statistics, charts and insights to help you stay on top of the space industry.